Total_Precipitation_Accumulation
0.32 0.18 0.21 0.20 0.18 0.18 0.19 0.22 0.21 0.21 0.19 0.17 0.16 0.14 0.14 0.13 0.12 0.10 0.10 0.11 0.14 0.20 0.25 0.27 0.29 0.34 0.37 0.32 0.25 0.21 0.22 0.25 0.30 0.33 0.37 0.42 0.47 0.55 0.65 0.65 0.70 0.69 0.63
0.39 0.21 0.21 0.21 0.21 0.21 0.18 0.19 0.20 0.21 0.19 0.16 0.14 0.13 0.13 0.12 0.12 0.12 0.12 0.13 0.16 0.18 0.19 0.21 0.25 0.27 0.26 0.21 0.18 0.17 0.17 0.21 0.34 0.49 0.62 0.65 0.67 0.70 0.79 0.85 0.95 0.99 0.73
0.52 0.36 0.25 0.23 0.20 0.20 0.19 0.19 0.20 0.20 0.20 0.18 0.15 0.13 0.13 0.11 0.11 0.12 0.12 0.14 0.19 0.21 0.19 0.18 0.18 0.18 0.17 0.16 0.16 0.18 0.22 0.29 0.51 0.78 1.17 1.40 1.16 1.03 0.97 0.94 0.91 0.79 0.77
0.49 0.46 0.32 0.29 0.25 0.22 0.21 0.22 0.23 0.21 0.19 0.17 0.15 0.14 0.13 0.13 0.13 0.14 0.15 0.17 0.22 0.25 0.23 0.19 0.17 0.15 0.15 0.16 0.17 0.21 0.28 0.40 0.68 1.02 1.73 1.85 1.76 1.65 1.19 0.95 0.83 0.79 0.90
0.43 0.42 0.39 0.32 0.28 0.26 0.25 0.26 0.27 0.27 0.21 0.19 0.19 0.19 0.19 0.17 0.17 0.19 0.23 0.26 0.28 0.28 0.28 0.26 0.22 0.20 0.19 0.18 0.20 0.24 0.31 0.46 0.84 1.22 1.74 2.23 2.53 2.10 1.53 1.16 0.95 0.90 1.03
0.45 0.43 0.39 0.37 0.35 0.35 0.35 0.33 0.31 0.29 0.26 0.26 0.25 0.24 0.23 0.23 0.24 0.27 0.34 0.39 0.38 0.36 0.38 0.37 0.34 0.28 0.23 0.22 0.25 0.29 0.39 0.59 0.84 1.21 1.77 2.44 2.37 2.01 1.68 1.43 1.22 1.13 1.13
0.48 0.53 0.42 0.44 0.44 0.44 0.45 0.43 0.41 0.36 0.34 0.35 0.35 0.31 0.29 0.29 0.31 0.35 0.42 0.44 0.44 0.44 0.45 0.42 0.35 0.28 0.25 0.25 0.30 0.35 0.47 0.66 0.84 1.38 1.86 2.24 2.08 1.82 1.73 1.60 1.50 1.39 1.28
0.51 0.49 0.48 0.48 0.51 0.51 0.54 0.58 0.56 0.50 0.46 0.45 0.43 0.40 0.35 0.33 0.36 0.41 0.45 0.46 0.46 0.44 0.42 0.40 0.37 0.33 0.32 0.31 0.33 0.42 0.53 0.58 0.66 1.18 1.68 1.86 1.61 1.64 1.77 1.64 1.54 1.43 1.33
0.61 0.61 0.66 0.69 0.71 0.73 0.74 0.74 0.74 0.66 0.59 0.54 0.48 0.42 0.38 0.37 0.40 0.43 0.50 0.54 0.53 0.46 0.42 0.40 0.39 0.36 0.35 0.34 0.35 0.40 0.48 0.60 0.65 0.96 1.53 1.89 1.47 1.58 1.83 1.72 1.54 1.47 1.38
1.02 1.03 1.06 1.05 0.97 0.86 0.82 0.85 0.82 0.74 0.66 0.58 0.49 0.43 0.43 0.47 0.52 0.60 0.55 0.56 0.56 0.54 0.50 0.49 0.43 0.38 0.38 0.37 0.37 0.43 0.51 0.52 0.54 0.91 1.46 1.57 1.49 1.80 2.02 1.83 1.62 1.56 1.41
1.63 1.61 1.50 1.41 1.23 1.22 1.13 0.93 0.96 0.86 0.77 0.67 0.62 0.56 0.58 0.68 0.84 0.92 0.76 0.78 0.73 0.70 0.67 0.66 0.61 0.57 0.52 0.46 0.48 0.55 0.58 0.53 0.71 1.07 1.66 1.75 1.94 2.13 2.29 2.12 1.84 1.69 1.59
2.10 2.03 1.76 1.73 1.68 1.55 1.42 1.32 1.28 1.10 1.02 0.89 0.98 0.88 0.96 1.26 1.36 1.20 1.20 1.09 1.08 1.04 0.93 0.91 0.88 0.76 0.68 0.67 0.77 0.79 0.61 0.64 0.83 1.12 1.46 1.74 2.00 2.28 2.37 2.18 1.95 1.80 1.81
2.08 1.94 2.03 2.16 2.00 1.94 1.98 1.92 1.73 1.64 1.54 1.35 1.43 1.37 1.45 1.46 1.37 1.40 1.53 1.47 1.39 1.33 1.36 1.40 1.22 1.01 1.02 1.08 1.06 0.96 0.83 0.90 0.95 1.11 1.42 1.66 1.91 2.33 2.49 2.28 2.06 1.99 1.99
2.31 2.10 2.17 2.16 2.13 2.24 2.23 2.22 2.21 2.14 2.08 1.96 1.91 1.68 1.80 1.87 1.89 1.88 2.01 1.99 2.00 2.01 2.01 1.92 1.74 1.56 1.42 1.39 1.32 1.28 1.14 1.11 1.24 1.46 1.62 1.66 1.80 2.18 2.47 2.47 2.25 2.12 2.06
2.95 2.67 2.49 2.57 2.45 2.40 2.53 2.60 2.35 2.41 2.40 2.52 2.47 2.16 2.20 2.24 2.25 2.43 2.43 2.50 2.45 2.59 2.52 2.33 2.09 1.97 1.84 1.58 1.47 1.50 1.47 1.44 1.48 1.57 1.76 1.83 1.84 2.07 2.42 2.64 2.56 2.42 2.42
3.40 3.15 2.85 2.75 2.78 2.69 2.80 2.99 2.84 2.63 2.69 2.72 2.80 2.62 2.57 2.61 2.68 2.74 2.79 2.85 2.69 2.68 2.72 2.62 2.33 2.20 2.06 1.84 1.61 1.52 1.51 1.67 1.67 1.61 1.81 1.95 1.89 1.91 2.22 2.65 2.87 2.98 3.06
3.58 3.26 3.18 2.98 3.16 3.33 3.53 3.46 3.40 3.35 3.29 3.17 3.10 3.13 2.98 2.94 3.01 2.99 3.16 3.23 3.07 2.99 2.96 2.89 2.74 2.49 2.33 2.22 2.07 1.89 1.77 1.77 1.89 1.98 2.01 2.13 2.19 2.16 2.29 2.55 2.83 3.03 3.17
3.51 3.44 3.53 3.32 3.38 3.60 3.62 3.57 3.64 3.82 3.78 3.61 3.45 3.47 3.35 3.35 3.43 3.56 3.48 3.34 3.26 3.17 3.17 3.29 3.09 2.76 2.65 2.67 2.55 2.21 1.92 1.96 2.05 2.12 2.13 2.23 2.42 2.35 2.39 2.38 2.51 2.75 2.99
3.41 3.34 3.51 3.70 3.53 3.68 3.77 3.80 3.93 4.06 4.21 4.12 4.00 3.85 3.77 3.80 3.80 3.92 3.85 3.66 3.48 3.40 3.41 3.19 3.16 3.06 3.04 2.96 2.58 2.34 2.04 1.98 2.05 2.03 2.08 2.18 2.40 2.51 2.54 2.34 2.41 2.71 2.90
3.43 3.45 3.54 3.86 3.84 4.11 4.18 3.99 4.03 4.05 4.20 4.28 4.34 4.28 4.31 4.33 4.24 4.22 4.08 3.95 3.84 3.69 3.60 3.46 3.41 3.34 3.17 3.02 2.60 2.35 2.16 1.98 1.96 2.01 2.01 2.09 2.15 2.19 2.30 2.33 2.37 2.31 2.54
3.65 3.74 3.71 3.81 4.03 4.22 4.37 4.31 4.42 4.37 4.31 4.50 4.67 4.68 4.80 4.88 4.70 4.65 4.53 4.40 4.16 3.91 3.76 3.62 3.46 3.31 3.06 2.96 2.81 2.52 2.15 1.90 1.92 1.90 1.85 1.93 2.00 1.96 2.03 2.11 2.28 2.23 2.16
3.80 3.89 4.03 4.14 4.15 4.30 4.74 5.14 5.42 5.68 5.67 5.59 5.66 5.68 5.51 5.39 5.31 5.16 5.08 4.82 4.46 4.19 3.89 3.65 3.47 3.21 2.96 2.91 2.91 2.95 2.54 2.17 1.79 1.56 1.60 1.64 1.66 1.67 1.74 1.85 1.91 1.97 1.93
3.58 3.79 3.91 4.15 4.50 5.01 5.60 6.01 6.30 6.56 6.62 6.38 6.14 6.02 5.75 5.53 5.40 5.09 4.87 4.75 4.46 4.03 3.76 3.58 3.39 3.18 2.95 2.86 2.80 2.98 2.79 2.41 2.00 1.75 1.56 1.46 1.49 1.59 1.63 1.73 1.77 1.72 1.64
3.20 3.52 3.84 4.13 4.73 5.62 6.28 6.68 7.02 7.11 7.02 6.84 6.62 6.23 5.71 5.34 5.01 4.73 4.49 4.21 3.95 3.60 3.35 3.16 3.08 3.04 2.94 2.75 2.69 2.53 2.35 2.22 2.19 1.95 1.73 1.62 1.58 1.59 1.54 1.48 1.51 1.55 1.55
2.97 3.30 3.69 4.08 4.74 5.42 6.03 6.61 7.03 7.14 7.04 6.80 6.33 5.78 5.21 4.75 4.34 3.98 3.71 3.47 3.24 2.95 2.73 2.55 2.52 2.63 2.67 2.59 2.55 2.51 2.39 2.29 2.19 2.04 1.87 1.82 1.79 1.69 1.56 1.47 1.44 1.43 1.41
2.57 2.90 3.35 3.78 4.30 4.90 5.30 5.82 6.17 6.32 6.19 5.80 5.25 4.62 4.21 3.91 3.62 3.28 2.99 2.74 2.48 2.26 2.11 2.03 1.99 2.04 2.18 2.25 2.29 2.29 2.28 2.36 2.34 2.29 2.13 2.01 1.96 1.83 1.69 1.57 1.49 1.47 1.42